Offutt AFB, NE

2:54 AM CST on December 07, 2016 (GMT -0600)
Offutt Air Force Base

Weather History for KOFF - March, 2014

Change the Weather History Date:

Monday, March 17, 2014

  Actual Average Record
Temperature  
Mean Temperature 40 °F -  
Max Temperature 58 °F 47 °F 83 °F (2012)
Min Temperature 21 °F 27 °F 21 °F (2014)
Degree Days  
Heating Degree Days 26    
Moisture  
Dew Point 22 °F    
Average Humidity 52    
Maximum Humidity 82    
Minimum Humidity 28    
Precipitation  
Precipitation 0.00 in - - ()
Sea Level Pressure  
Sea Level Pressure 29.72 in    
Wind  
Wind Speed 12 mph (SSE)    
Max Wind Speed 20 mph    
Max Gust Speed 31 mph    
Visibility 10 miles    
Events      
Averages and records for this station are not official NWS values.
T = Trace of Precipitation, MM = Missing Value Source: NWS Daily Summary

Daily Weather History Graph

Daily Weather History Graph

Search for Another Location

Airport or City:

Trip Planner

Search our weather history database for the weather conditions in past years. The results will help you decide how hot, cold, wet, or windy it might be!

Date:

Astronomy

Mar. 17, 2014 Rise Set
Actual Time 7:31 AM CDT 7:32 PM CDT
Civil Twilight 7:04 AM CDT 8:00 PM CDT
Nautical Twilight 6:32 AM CDT 8:32 PM CDT
Astronomical Twilight 6:00 AM CDT 9:04 PM CDT
Moon 8:51 PM CDT (3/17) 7:47 AM CDT (3/17)
Length of Visible Light 12h 55m
Length of Day
12h 00m
Full, 99% of the Moon is Illuminated
Mar 17
Full
Mar 23
Last Quarter
Mar 30
New
Apr 7
First Quarter
Apr 15
Full

Hourly Weather History & Observations

Time (CDT) Temp. Windchill Dew Point Humidity Pressure Visibility Wind Dir Wind Speed Gust Speed Precip Events Conditions
12:58 AM 21.4 °F 11.1 °F 15.8 °F 79% 30.09 in 10.0 mi SE 9.2 mph - N/A   Clear
1:58 AM 23.7 °F 17.8 °F 17.8 °F 78% 30.07 in 10.0 mi ESE 4.6 mph - N/A   Clear
2:58 AM 24.8 °F 15.3 °F 18.5 °F 77% 30.02 in 10.0 mi SE 9.2 mph - N/A   Clear
3:58 AM 26.4 °F 16.0 °F 16.7 °F 67% 29.97 in 10.0 mi SSE 11.5 mph - N/A   Mostly Cloudy
4:58 AM 25.2 °F 15.7 °F 17.1 °F 71% 29.96 in 10.0 mi SSE 9.2 mph - N/A   Clear
5:58 AM 25.0 °F 14.2 °F 17.6 °F 74% 29.91 in 10.0 mi SSE 11.5 mph - N/A   Clear
6:58 AM 23.7 °F 14.0 °F 18.7 °F 81% 29.90 in 10.0 mi SSE 9.2 mph - N/A   Scattered Clouds
7:58 AM 23.4 °F 13.5 °F 18.7 °F 82% 29.87 in 10.0 mi SE 9.2 mph - N/A   Clear
8:58 AM 28.8 °F 19.0 °F 19.2 °F 68% 29.84 in 10.0 mi SSE 11.5 mph - N/A   Clear
9:58 AM 33.8 °F 23.9 °F 19.6 °F 56% 29.79 in 10.0 mi SSE 15.0 mph - N/A   Clear
10:58 AM 40.3 °F 32.2 °F 20.3 °F 45% 29.75 in 10.0 mi South 15.0 mph 24.2 mph N/A   Clear
11:58 AM 44.1 °F 36.5 °F 20.7 °F 39% 29.70 in 10.0 mi South 17.3 mph 25.3 mph N/A   Partly Cloudy
12:58 PM 47.7 °F - 22.1 °F 37% 29.67 in 10.0 mi South 17.3 mph 24.2 mph N/A   Clear
1:58 PM 51.4 °F - 22.6 °F 32% 29.62 in 10.0 mi South 16.1 mph 25.3 mph N/A   Clear
2:58 PM 55.6 °F - 24.1 °F 30% 29.57 in 10.0 mi South 16.1 mph 27.6 mph N/A   Clear
3:58 PM 57.4 °F - 23.9 °F 28% 29.54 in 10.0 mi SSE 18.4 mph 31.1 mph N/A   Clear
4:58 PM 58.3 °F - 24.8 °F 28% 29.52 in 10.0 mi South 17.3 mph 25.3 mph N/A   Clear
5:58 PM 57.0 °F - 25.3 °F 30% 29.50 in 10.0 mi SSE 18.4 mph 25.3 mph N/A   Clear
6:58 PM 53.6 °F - 25.3 °F 34% 29.49 in 10.0 mi SE 15.0 mph - N/A   Clear
7:58 PM 52.0 °F - 25.3 °F 36% 29.49 in 10.0 mi SE 19.6 mph 25.3 mph N/A   Clear
8:58 PM 50.5 °F - 25.3 °F 38% 29.50 in 10.0 mi SE 19.6 mph - N/A   Clear
9:58 PM 48.4 °F - 26.8 °F 43% 29.50 in 10.0 mi SSE 18.4 mph - N/A   Clear
10:58 PM 46.8 °F - 27.9 °F 48% 29.52 in 10.0 mi SSE 13.8 mph - N/A   Clear
11:58 PM 45.0 °F 38.2 °F 28.4 °F 52% 29.52 in 10.0 mi SSE 15.0 mph 23.0 mph N/A   Clear